User: anonymous   Login
Location: �chenoz-la-M�line
(47.6009°N, 6.1354°E)
Time: 14:46:30
(UTC+00:00)
Language:

Cosmos 2298 Rocket - Orbit

View from above orbital plane
View from above orbital plane
View from above satellite
View from above satellite

Ground track
Ground track

The orbit data is extracted from the following two-line orbital elements,

1 23432U 94083B   21110.52117640  .00000023  00000-0  17866-4 0  9996
2 23432  74.0317 251.5960 0004473 126.6927 299.6574 14.33556745377391
Epoch (UTC): 20 April 2021 12:30:29
Eccentricity: 0.0004473
inclination: 74.0317°
perigee height: 776 km
apogee height: 783 km
right ascension of ascending node: 251.5960°
argument of perigee: 126.6927°
revolutions per day: 14.33556745
mean anomaly at epoch: 299.6574°
orbit number at epoch: 37739

The dashed part of the orbit path shows where the satellite is in the earth's shadow,  

DLR